Stations météo

réclame
Mon MeteoGroup
Cuxhaven, Allemagne (10131): Température de l'air & dewpoint: 17.09.2018 02:00:00 - 23.09.2018 02:00:00 (CEST)Cuxhaven, Allemagne (10131): Température de l'air 5cm: 17.09.2018 02:00:00 - 23.09.2018 02:00:00 (CEST)Cuxhaven, Allemagne (10131): Vitesse du vent & gusts: 17.09.2018 02:00:00 - 23.09.2018 02:00:00 (CEST)Cuxhaven, Allemagne (10131): Direction du vent: 17.09.2018 02:00:00 - 23.09.2018 02:00:00 (CEST)Cuxhaven, Allemagne (10131): reduced air pressure: 17.09.2018 02:00:00 - 23.09.2018 02:00:00 (CEST)Cuxhaven, Allemagne (10131): visibility: 17.09.2018 02:00:00 - 23.09.2018 02:00:00 (CEST)Cuxhaven, Allemagne (10131): Ensoleillement: 17.09.2018 02:00:00 - 23.09.2018 02:00:00 (CEST)Cuxhaven, Allemagne (10131): Quantités de précipitations: 17.09.2018 02:00:00 - 23.09.2018 02:00:00 (CEST)
Date & Time tt [°C] td [°C] tt 5cm [°C] ff [km/h] ff [knt] fx [km/h] fx [knt] dd ppp [hPa] vv [km] sd [min] rr [mm]
23.09.2018 02:00:00 11,5 9,4 9,7 11 6 28 15 SW 1014,4 29 0 0,0
23.09.2018 01:00:00 11,3 8,9 9,8 12 7 29 15 SW 1014,6 20 0 0,2
23.09.2018 00:00:00 11,6 8,8 10,0 16 9 33 18 WSW 1014,7 10 0 0,5
22.09.2018 23:00:00 12,1 8,0 9,4 11 6 53 28 WSW 1014,8 40 0 0,2
22.09.2018 22:00:00 13,2 4,8 10,9 18 10 35 19 W 1014,6 70 0 0,0
22.09.2018 21:00:00 12,9 7,6 11,5 18 10 35 19 WSW 1014,5 41 0 0,0
22.09.2018 20:00:00 12,7 8,7 11,6 16 9 35 19 WSW 1014,2 40 0 0,0
22.09.2018 19:00:00 13,0 8,9 12,1 23 12 43 23 WSW 1014,3 35 0 0,1
22.09.2018 18:00:00 13,4 9,0 11,7 24 13 46 25 WSW 1014,5 21 0 0,0
22.09.2018 17:00:00 13,7 9,0 13,3 25 13 57 31 WSW 1014,5 38 0 0,0
22.09.2018 16:00:00 14,1 7,6 13,5 31 17 59 32 W 1014,8 36 0 0,0
22.09.2018 15:00:00 14,7 8,1 13,8 35 19 54 29 WSW 1014,4 22 0 0,0
22.09.2018 14:00:00 13,5 10,0 13,4 22 12 53 29 WSW 1014,6 27 14 1,1
22.09.2018 13:00:00 12,3 9,5 12,5 20 11 49 26 WSW 1014,5 29 12 1,3
22.09.2018 12:00:00 12,6 9,9 11,9 26 14 52 28 WSW 1014,4 9 6 0,7
22.09.2018 11:00:00 13,9 9,2 15,2 21 12 48 26 WSW 1014,1 19 37 0,0
22.09.2018 10:00:00 12,7 9,4 11,7 18 10 45 25 SW 1013,7 49 40 0,0
22.09.2018 09:00:00 12,1 9,5 10,7 22 12 50 27 SW 1013,5 20 59 0,0
22.09.2018 08:00:00 11,5 9,5 10,1 20 11 37 20 SW 1013,2 35 16 0,0
22.09.2018 07:00:00 11,6 9,4 10,3 18 10 35 19 WSW 1012,6 44 0 0,0
22.09.2018 06:00:00 11,9 10,0 10,7 21 11 35 19 W 1012,2 37 0 0,1
22.09.2018 05:00:00 11,9 9,1 10,3 16 9 53 28 W 1011,5 38 0 1,2
22.09.2018 04:00:00 11,3 10,0 10,5 18 10 37 20 SW 1010,7 7 0 0,9
22.09.2018 03:00:00 11,0 9,4 9,6 18 10 46 25 SW 1009,7 34 0 0,9
22.09.2018 02:00:00 11,2 9,5 10,4 21 11 45 24 SW 1009,3 37 0 0,1
22.09.2018 01:00:00 11,4 8,6 10,6 20 11 45 24 SW 1008,6 54 0 0,0
22.09.2018 00:00:00 11,3 8,0 9,6 25 14 55 30 SW 1008,0 61 0 0,0
21.09.2018 23:00:00 11,1 7,9 9,4 25 14 47 25 SW 1007,3 55 0 0,2
21.09.2018 22:00:00 10,7 6,9 9,0 36 19 73 39 WSW 1007,2 7 0 0,2
21.09.2018 21:00:00 12,7 5,9 11,4 24 13 62 33 SW 1006,4 70 0 0,0
21.09.2018 20:00:00 13,9 6,2 12,6 32 17 64 35 WSW 1005,8 70 0 0,0
21.09.2018 19:00:00 14,0 6,5 12,4 34 18 79 43 W 1005,0 43 42 0,0
21.09.2018 18:00:00 14,7 7,4 13,8 40 21 73 39 WSW 1004,5 22 39 0,0
21.09.2018 17:00:00 14,9 9,4 14,4 34 19 72 39 W 1004,0 12 28 0,6
21.09.2018 16:00:00 13,9 9,0 12,2 39 21 70 38 WSW 1003,3 15 32 0,2
21.09.2018 15:00:00 15,5 8,7 15,9 35 19 74 40 WSW 1002,8 16 3 0,0
21.09.2018 14:00:00 16,0 8,5 16,5 39 21 71 38 WSW 1001,8 13 14 0,0
21.09.2018 13:00:00 15,4 10,9 14,1 33 18 59 32 W 1000,6 21 0 0,0
21.09.2018 12:00:00 15,7 12,8 14,9 26 14 69 38 WSW 999,6 14 0 3,2
21.09.2018 11:00:00 17,0 14,5 16,0 29 15 70 38 SSW 998,4 4,9 0 1,2
21.09.2018 10:00:00 21,2 12,4 20,2 24 13 53 29 SSW 997,6 25 0 0,0
21.09.2018 09:00:00 20,6 12,5 19,5 18 10 43 23 S 998,0 41 0 0,0
21.09.2018 08:00:00 19,4 12,6 18,2 15 8 34 18 S 998,8 39 0 0,0
21.09.2018 07:00:00 18,6 11,9 17,4 15 8 31 17 SSE 1000,0 41 0 0,0
21.09.2018 06:00:00 18,7 11,9 17,4 14 8 31 17 S 1001,6 45 0 0,0
21.09.2018 05:00:00 18,7 12,0 17,2 12 6 23 12 S 1003,1 45 0 0,0
21.09.2018 04:00:00 17,9 12,0 15,9 9 5 25 13 S 1004,4 40 0 0,0
21.09.2018 03:00:00 18,3 12,1 16,3 11 6 25 13 SSE 1005,3 35 0 0,0
21.09.2018 02:00:00 18,5 12,4 16,7 11 6 22 12 SSE 1006,3 35 0 0,0
21.09.2018 01:00:00 18,8 12,6 17,0 11 6 22 12 SSE 1007,3 38 0 0,0
21.09.2018 00:00:00 18,8 12,7 17,1 11 6 21 11 SSE 1008,5 33 0 0,0
20.09.2018 23:00:00 19,0 13,0 17,1 9 5 19 10 S 1009,4 22 0 0,0
20.09.2018 22:00:00 18,5 13,6 16,3 8 4 17 9 SSE 1010,3 15 0 0,0
20.09.2018 21:00:00 19,3 14,0 17,1 7 4 14 8 SSE 1010,9 25 0 0,0
20.09.2018 20:00:00 19,9 14,2 17,5 5 3 15 8 SSE 1011,3 20 0 0,0
20.09.2018 19:00:00 20,8 14,0 19,0 10 5 26 14 SW 1011,9 37 3 0,0
20.09.2018 18:00:00 21,6 14,3 21,1 12 7 38 21 WSW 1012,4 39 0 0,0
20.09.2018 17:00:00 22,5 14,1 22,6 22 12 42 23 SW 1012,6 40 12 0,0
20.09.2018 16:00:00 22,6 14,3 24,4 17 9 39 21 SSW 1012,7 23 8 0,0
20.09.2018 15:00:00 22,0 14,5 22,6 18 10 38 20 SSW 1013,3 19 11 0,0
20.09.2018 14:00:00 21,7 14,4 23,2 23 12 49 27 SW 1013,6 17 18 0,0
20.09.2018 13:00:00 20,7 14,0 21,8 21 11 39 21 SSW 1013,9 22 5 0,0
20.09.2018 12:00:00 19,8 14,3 20,6 21 12 44 24 SSW 1014,2 20 1 0,0
20.09.2018 11:00:00 19,6 14,4 19,9 19 11 41 22 SW 1014,4 25 41 0,0
20.09.2018 10:00:00 18,7 14,1 18,3 21 11 36 20 SW 1014,4 13 60 0,0
20.09.2018 09:00:00 17,7 13,8 17,0 18 10 32 17 SSW 1014,6 17 59 0,0
20.09.2018 08:00:00 17,3 13,9 16,2 12 6 26 14 SSW 1014,3 30 14 0,0
20.09.2018 07:00:00 17,3 13,9 16,0 12 6 23 12 SSW 1014,5 30 0 0,0
20.09.2018 06:00:00 17,9 13,9 16,3 14 8 32 17 SSW 1014,3 34 0 0,0
20.09.2018 05:00:00 18,2 13,8 16,8 15 8 31 17 SSW 1014,3 38 0 0,0
20.09.2018 04:00:00 18,3 13,9 16,6 16 9 34 19 SSW 1014,3 39 0 0,0
20.09.2018 03:00:00 18,6 14,0 16,9 18 10 34 18 SW 1014,3 47 0 0,0
20.09.2018 02:00:00 19,1 13,9 17,3 16 8 41 22 SW 1014,4 43 0 0,0
20.09.2018 01:00:00 19,6 13,7 18,1 19 11 45 24 SW 1014,6 52 0 0,0
20.09.2018 00:00:00 20,2 13,6 18,4 23 12 45 25 SW 1014,7 50 0 0,0
19.09.2018 23:00:00 20,4 13,3 18,6 22 12 42 23 SW 1014,7 34 0 0,0
19.09.2018 22:00:00 21,0 13,0 19,2 22 12 45 24 SW 1014,7 35 0 0,0
19.09.2018 21:00:00 20,9 13,6 18,7 15 8 28 15 SW 1014,6 32 0 0,0
19.09.2018 20:00:00 21,3 13,8 19,0 15 8 32 17 SW 1014,3 35 2 0,0
19.09.2018 19:00:00 22,3 14,5 20,8 15 8 33 18 WSW 1013,9 30 56 0,0
19.09.2018 18:00:00 23,7 15,4 23,0 18 10 41 22 WSW 1013,6 22 57 0,0
19.09.2018 17:00:00 24,9 15,4 25,0 20 11 46 25 SW 1013,2 11 60 0,0
19.09.2018 16:00:00 25,1 15,0 26,2 24 13 50 27 SW 1013,3 7 55 0,0
19.09.2018 15:00:00 24,5 14,3 24,4 20 11 45 24 SSW 1013,8 36 42 0,0
19.09.2018 14:00:00 23,6 14,0 23,8 17 9 38 21 S 1014,3 28 47 0,0
19.09.2018 13:00:00 23,1 14,6 25,1 12 7 37 20 S 1014,7 13 32 0,0
19.09.2018 12:00:00 21,3 14,4 22,2 14 7 30 16 SSW 1015,5 20 49 0,0
19.09.2018 11:00:00 19,9 14,1 20,7 19 11 36 19 SSW 1015,6 14 60 0,0
19.09.2018 10:00:00 18,0 14,0 17,1 13 7 30 16 SSW 1015,6 20 60 0,0
19.09.2018 09:00:00 16,3 13,5 15,5 12 7 30 16 SSW 1015,3 17 35 0,0
19.09.2018 08:00:00 15,2 13,5 14,0 15 8 28 15 SSW 1015,1 9 3 0,0
19.09.2018 07:00:00 15,0 13,8 13,7 12 6 21 11 S 1015,1 17 0 0,0
19.09.2018 06:00:00 15,2 13,9 13,9 11 6 21 11 SSW 1015,0 17 0 0,0
19.09.2018 05:00:00 15,7 14,0 14,3 11 6 24 13 SSW 1014,9 18 0 0,0
19.09.2018 04:00:00 16,1 14,1 14,5 15 8 29 15 SW 1014,7 19 0 0,0
19.09.2018 03:00:00 16,4 13,8 14,7 16 9 29 16 SW 1014,4 22 0 0,0
19.09.2018 02:00:00 16,7 13,9 14,8 15 8 24 13 SW 1014,1 23 0 0,0
19.09.2018 01:00:00 17,2 14,0 15,0 11 6 29 16 SW 1013,7 27 0 0,0
19.09.2018 00:00:00 17,7 14,1 15,7 13 7 35 19 SW 1013,6 27 0 0,0
18.09.2018 23:00:00 18,7 14,1 16,9 20 11 44 24 WSW 1013,4 27 0 0,0
18.09.2018 22:00:00 19,0 15,1 17,2 21 11 39 21 WSW 1013,0 23 0 0,0
18.09.2018 21:00:00 18,8 16,1 17,2 23 12 37 20 W 1012,5 16 0 0,0
18.09.2018 20:00:00 19,5 15,8 18,0 24 13 41 22 W 1011,3 21 8 0,0
18.09.2018 19:00:00 20,0 16,1 19,3 23 13 44 24 WNW 1010,7 20 60 0,0
18.09.2018 18:00:00 21,4 16,4 21,1 24 13 41 22 W 1010,2 10 60 0,0
18.09.2018 17:00:00 24,1 15,8 24,8 28 15 47 26 W 1009,5 8 60 0,0
18.09.2018 16:00:00 29,8 14,4 30,3 24 13 48 26 SW 1008,8 13 57 0,0
18.09.2018 15:00:00 29,1 12,2 30,0 19 10 37 20 SSW 1008,9 6 60 0,0
18.09.2018 14:00:00 27,9 13,5 29,5 11 6 35 19 S 1009,5 4,2 60 0,0
18.09.2018 13:00:00 26,0 13,0 27,3 15 8 31 17 SSE 1009,8 10 60 0,0
18.09.2018 12:00:00 23,9 12,5 24,6 13 7 31 17 S 1010,5 11 60 0,0
18.09.2018 11:00:00 21,4 11,6 21,5 11 6 25 14 S 1010,9 16 60 0,0
18.09.2018 10:00:00 18,4 10,3 16,5 11 6 24 13 S 1011,4 18 60 0,0
18.09.2018 09:00:00 16,3 9,0 14,5 12 6 24 13 SSE 1011,5 28 60 0,0
18.09.2018 08:00:00 14,8 9,0 12,8 11 6 22 12 SSE 1011,9 23 21 0,0
18.09.2018 07:00:00 14,4 8,8 12,5 11 6 24 13 SSE 1012,0 21 0 0,0
18.09.2018 06:00:00 14,6 8,8 12,6 13 7 25 13 SSE 1012,4 23 0 0,0
18.09.2018 05:00:00 15,3 8,8 13,0 14 7 24 13 SSE 1012,9 26 0 0,0
18.09.2018 04:00:00 15,9 8,7 13,6 11 6 22 12 SSE 1013,4 28 0 0,0
18.09.2018 03:00:00 16,1 9,0 13,5 10 6 19 10 S 1013,8 30 0 0,0
18.09.2018 02:00:00 16,1 9,6 13,2 10 5 18 10 S 1014,4 35 0 0,0
18.09.2018 01:00:00 16,6 10,5 13,5 9 5 18 10 SSE 1014,9 38 0 0,0
18.09.2018 00:00:00 16,7 12,2 12,6 8 4 14 7 SSE 1015,2 28 0 0,0
17.09.2018 23:00:00 17,1 15,8 14,6 6 4 9 5 SE 1015,7 7 0 0,0
17.09.2018 22:00:00 16,8 15,6 13,7 6 3 8 5 ENE 1016,2 6 0 0,0
17.09.2018 21:00:00 16,9 15,6 12,5 2 1 12 6 NNE 1016,6 7 0 0,0
17.09.2018 20:00:00 18,8 14,8 15,3 7 4 15 8 WNW 1016,4 27 9 0,0
17.09.2018 19:00:00 22,0 14,1 20,6 8 4 20 11 SSW 1016,4 51 45 0,0
17.09.2018 18:00:00 22,2 14,0 21,5 11 6 24 13 SSW 1016,6 36 50 0,0
17.09.2018 17:00:00 22,6 13,2 23,4 10 5 29 16 SW 1017,1 22 60 0,0
17.09.2018 16:00:00 22,4 13,0 24,3 10 5 32 17 WSW 1017,4 11 58 0,0
17.09.2018 15:00:00 21,3 12,6 23,3 18 10 35 19 SW 1017,8 12 60 0,0
17.09.2018 14:00:00 21,0 11,7 22,8 19 11 34 19 SW 1018,0 11 60 0,0
17.09.2018 13:00:00 20,5 10,9 22,1 13 7 29 15 SSW 1017,9 23 60 0,0
17.09.2018 12:00:00 19,7 13,0 21,1 14 7 32 17 SW 1018,3 15 60 0,0
17.09.2018 11:00:00 18,3 12,0 19,1 15 8 27 14 SW 1018,5 17 60 0,0
17.09.2018 10:00:00 16,8 11,2 16,3 14 8 26 14 SW 1018,4 17 56 0,0
17.09.2018 09:00:00 15,1 10,5 14,1 16 9 27 15 SW 1018,1 15 17 0,0
17.09.2018 08:00:00 13,5 9,9 12,3 13 7 23 13 SSW 1017,8 16 0 0,0
17.09.2018 07:00:00 13,3 9,9 11,7 13 7 22 12 SSW 1017,7 15 0 0,0
17.09.2018 06:00:00 13,7 10,0 11,9 12 7 22 12 SSW 1017,8 16 0 0,0
17.09.2018 05:00:00 13,7 9,8 11,7 13 7 20 11 SSW 1017,6 22 0 0,0
17.09.2018 04:00:00 14,4 10,0 12,7 12 6 21 11 SSW 1017,5 28 0 0,0
17.09.2018 03:00:00 14,5 10,3 12,4 9 5 17 9 S 1017,7 38 0 0,0
17.09.2018 02:00:00 14,8 10,4 12,2 8 4 18 10 SSW 1018,1 38 0 0,0

tt = Température de l'air
td = dewpoint
tt 5cm = Température de l'air 5cm
ff = Vitesse du vent
fx = gusts
dd = Direction du vent
ppp = reduced air pressure
vv = visibility
sd = Ensoleillement
rr = Quantités de précipitations

stations d'obs. à proximité